Flag for Germany Weather past 2 weeks in Stassfurt, Saxony-Anhalt, Germany

Now
26 °F

Fog.


Feels Like: 26 °F
Forecast: 20 / 32 °F
Wind: 2 mph from West

Location: Magdeburg

Current Time: Dec 28, 2014 at 9:23:48 PM

Latest Report: Dec 28, 2014 at 9:00 PM


Visibility: 4 mi

Pressure: 30.40 "Hg

Humidity: 89%

Dew point: 23 °F

Location of StassfurtLocation

Historic Weather in Stassfurt — Graph

°F

Stassfurt temperature yesterday

Maximum temperature yesterday: 31 °F (at 1:00 PM)
Minimum temperature yesterday: 24 °F (at 11:00 PM)
Average temperature yesterday: 27 °F

Past Weeks' High & Low Weather Summary

 TemperatureHumidityPressure
High56 °F (Dec 18, 11:00 PM)97% (Dec 17, 7:00 PM)30.39 "Hg (Dec 17, 7:00 PM)
Low17 °F (Dec 28, 8:00 AM)61% (Dec 25, 3:00 PM)29.62 "Hg (Dec 17, 5:00 PM)
Average41 °F83%29.96 "Hg
* Reported Dec 13 8:00 PM — Dec 28 8:00 PM, Stassfurt, Weather by CustomWeather, © 2014

Note: Actual official high and low records may vary slightly from our data, if they occured in-between our weather recording intervals... More about our weather records

Advertising

Stassfurt weather history for previous 24 hours

 ConditionsComfort  
Time TempWeatherWind HumidityBarometerVisibility
8:00 PM
Dec 28
26 °FFog.3 mph89%30.39 "Hg4 mi
7:00 PM25 °FFog.3 mph89%30.38 "Hg4 mi
6:00 PM25 °FFog.2 mph90%30.37 "Hg4 mi
5:00 PM25 °FClear.1 mph91%30.36 "Hg6 mi
4:00 PM27 °FPassing clouds.1 mph88%30.33 "Hg7 mi
3:00 PM29 °FLow clouds.2 mph84%30.31 "Hg7 mi
2:00 PM28 °FOvercast.2 mph81%30.29 "Hg6 mi
1:00 PM27 °FOvercast.2 mph81%30.29 "Hg6 mi
12:00 PM25 °FOvercast.1 mph80%30.29 "Hg6 mi
11:00 AM23 °FOvercast.2 mph84%30.27 "Hg6 mi
10:00 AM20 °FPassing clouds.1 mph87%30.24 "Hg5 mi
9:00 AM17 °FPassing clouds.2 mph92%30.19 "Hg5 mi
8:00 AM17 °FPassing clouds.1 mph93%30.16 "Hg5 mi
7:00 AM19 °FClear.2 mph88%30.11 "Hg5 mi
6:00 AM20 °FPassing clouds.3 mph83%30.08 "Hg6 mi
5:00 AM21 °FOvercast.3 mph84%30.05 "Hg5 mi
3:00 AM21 °FFog.3 mph87%29.99 "Hg4 mi
2:00 AM22 °FFog.3 mph86%29.95 "Hg4 mi
1:00 AM23 °FPassing clouds.5 mph81%29.92 "Hg5 mi
12:00 AM24 °FPassing clouds.5 mph79%29.90 "Hg6 mi
11:00 PM
Dec 27
24 °FPassing clouds.3 mph81%29.88 "Hg7 mi
9:00 PM27 °FOvercast.5 mph81%29.83 "Hg9 mi
Weather by CustomWeather, © 2014

See weather overviewHow to use our weather pages